Showing default

UPMSAT-2, 46276

Orbit data source: Space-Track

UPMSAT-2, 46276 is a payload satellite owned by IDR/UPM (ES) in SSO that was launched on Thu, 03 Sep 2020 UTC via a VEGA launch vehicle from the French Guiana (FRGUI). Payload-class satellites include a variety of spacecraft equipped with specific instruments for various scientific and technological missions. These include communications satellites like Starlink; space stations such as the ISS; scientific satellites like the Hubble; Earth observation satellites from companies like Planet Labs, Umbra, and HawkEye 360; GPS; miniature CubeSats for education and research; and military/defense satellites.

Loading next visibility...
Identifier
46276, 2020-061E
Orbit
SSO
Last TLE update
6 hours ago
Origin
Manufacturer
IDR/UPM
Mission
Operational Amateur Technology
Bus & Motor
UPMSAT-2, Unknown motor
Mass
45 kg wet, 45 kg dry
Launch date (UTC)
2020-09-03 (5 years ago)
Launch vehicle
VEGA
Launch site
French Guiana (FRGUI)
Object type
Payload
Rocket body
Debris
Shape & HBR
Box, Unknown HBR
Radar Cross Section
0.425 m², Medium (>0.1 m² and < 1m²)

Expand to show TLE details & history

TLE from 6 hours ago
0 UPMSAT-2
1 46276U 20061E   25211.48183663  .00102674  00000-0  65832-3 0  9991
2 46276  97.2383 287.8188 0001261 160.7537 199.3777 15.75970948273460
Epoch: 2025-07-30T11:33Z
TLE epoch observation values (Epoch: 2025-07-30T11:33:50.684Z)
Latitude
-0.00001°
Longitude
165.99718°
Altitude
345.84 km
Speed
7.701 km/s
True Right ascension
19h 11m 16s
True Declination
0° 00' 00"
Sunlit
Object was in full shadow at epoch
Visualization orbit readout
Latitude
57.19969°
Longitude
154.97159°
Altitude
351.572 km
Speed
7.704 km/s
Apparent Right ascension
19h 02m 10s
Apparent Declination
10° 26' 35"
Sunlit
Object is in daylight
Visualization observer readout
Local Sidereal Time
07:28:14
Azimuth
8.289° NNE
Elevation
-39.279°
Doppler factor
1
Orbital elements
Apogee altitude
339.601 km
Perigee altitude
337.907 km
Semi-major axis
6,716.891 km
Eccentricity
0.00013
Inclination
97.2383°
RAAN
287.8188°
Arg. of periapsis
160.7537°
True anomaly
199.37291°
Mean anomaly
199.3777°
Eccentric anomaly
199.3753°
Mean motion
3.94267 °/min
Orbital period
91.31 mins
BSTAR
0.00065832
Loading maneuver chart data...
Loading SW <> Apogee altitude chart data...
|